Theta_e
366 368 355 353 360 351 362 365 364 364 362 358 356 355 350 348 347 347 351 361 361 362 362 362 361 361 361 361 361 361 361 361 362 362 361 360 359 360 360 358 356 355 356
352 364 364 363 361 362 364 368 367 365 363 357 354 355 354 350 350 350 349 354 361 361 359 358 357 356 359 360 360 360 359 358 359 359 361 359 358 358 358 359 358 358 356
370 375 363 367 365 371 368 372 367 369 361 357 358 353 352 352 349 351 351 352 354 360 357 355 355 354 352 351 351 351 352 354 354 355 355 357 357 357 357 357 358 358 357
370 371 363 363 366 369 364 364 360 363 359 358 357 353 350 350 352 351 349 348 348 346 351 352 351 352 350 348 348 349 348 347 348 350 350 351 352 355 357 357 358 357 356
366 367 360 367 370 363 358 362 364 364 359 357 352 348 350 348 349 348 351 349 347 345 344 349 351 350 346 345 346 343 343 344 346 345 344 344 346 348 349 353 355 356 356
366 369 361 368 367 363 362 367 367 366 362 358 351 345 349 348 351 350 349 346 345 345 345 345 344 343 348 346 343 340 338 340 339 337 338 341 342 342 342 345 348 352 353
368 371 362 368 368 362 363 369 363 363 359 358 352 345 349 348 350 349 350 348 347 344 342 340 339 338 341 348 345 340 336 336 334 333 334 338 341 342 338 338 342 345 348
368 368 368 365 366 366 366 368 367 360 356 355 348 344 336 341 345 347 349 348 344 344 343 345 343 340 339 339 342 341 337 333 331 332 332 335 337 341 339 337 338 340 342
371 372 373 373 373 372 360 366 366 361 354 356 351 344 336 331 340 347 349 348 344 345 344 346 347 345 339 339 343 342 338 334 329 331 330 330 335 338 340 340 339 338 339
368 370 373 372 373 368 368 367 365 364 362 351 350 351 347 346 338 335 346 346 350 344 346 344 344 339 337 339 344 341 337 333 328 328 327 330 331 332 334 336 336 337 337
370 368 371 373 370 368 367 366 370 365 362 355 350 343 343 346 347 341 334 339 346 349 346 345 343 338 337 335 334 336 335 335 333 332 328 328 330 330 329 331 333 334 335
366 368 368 370 369 368 368 364 371 366 363 360 354 348 344 343 342 342 339 340 339 342 344 344 338 340 334 337 335 339 336 334 335 333 334 331 329 329 330 330 330 331 332
359 363 367 367 366 370 368 371 370 366 363 358 357 354 350 348 350 349 342 340 337 342 338 343 341 335 335 335 329 336 335 334 333 332 331 332 332 331 330 330 329 330 330
360 366 369 369 369 373 371 369 369 367 362 359 358 357 352 350 349 350 346 339 334 334 335 338 340 333 337 334 333 336 327 333 333 332 331 332 332 331 330 330 330 329 328
363 368 374 370 372 373 371 371 366 363 360 356 353 353 354 352 350 349 346 342 336 328 327 332 331 337 329 326 331 327 326 332 333 331 326 325 324 323 324 324 325 326 329
365 364 367 374 373 373 372 369 362 359 355 356 353 353 353 351 350 349 346 343 341 336 328 333 333 332 328 328 327 327 327 331 329 326 324 324 323 322 322 323 323 323 324
370 377 369 368 372 369 372 369 363 354 338 341 352 353 352 351 349 346 346 345 340 337 329 332 332 325 324 328 326 323 323 320 320 329 326 325 324 322 322 322 322 322 322
371 371 370 372 369 373 372 368 360 340 340 339 341 347 349 351 347 347 345 342 339 338 330 323 323 321 322 319 320 319 317 319 321 327 325 323 323 320 320 320 320 320 320
371 371 371 370 372 372 369 368 359 344 341 340 343 348 349 347 346 345 344 338 332 328 326 318 317 320 320 317 315 316 318 321 324 328 322 319 319 319 318 315 315 315 315
373 373 373 374 372 371 370 364 350 343 340 342 346 352 342 342 338 337 328 328 326 320 318 315 314 315 315 315 314 315 316 321 320 320 317 316 318 318 314 313 313 316 315
374 373 373 372 372 369 366 363 349 343 344 345 351 338 325 323 323 322 318 321 318 315 313 312 313 313 312 311 312 316 317 317 317 314 311 312 313 313 309 310 314 316 320
374 374 372 372 371 365 339 339 343 345 347 347 335 328 323 323 321 321 320 320 320 316 315 314 313 311 312 313 316 316 315 313 309 315 309 309 311 310 308 307 313 312 313
375 374 373 371 369 355 333 334 341 356 352 347 340 337 331 326 330 323 320 320 319 319 318 318 315 314 313 316 317 312 312 312 311 312 307 308 307 308 308 307 310 310 311
375 375 371 364 367 342 328 331 338 354 350 343 337 330 323 320 319 324 325 324 323 321 320 318 319 319 318 318 319 315 314 313 313 313 309 303 306 305 309 306 309 309 308
374 370 369 361 349 339 325 326 344 347 336 329 330 325 320 318 315 316 324 322 322 321 316 316 317 317 316 317 319 314 309 306 305 306 307 304 303 304 308 305 305 307 306
367 358 359 355 340 346 320 323 337 339 330 323 317 313 314 313 311 311 321 320 318 320 323 322 324 318 319 319 320 315 309 305 304 303 305 303 303 303 300 306 305 303 303
Wind_Speed
1 1 5 8 2 5 4 4 3 3 4 4 3 4 8 6 6 4 3 9 10 10 8 5 3 4 5 6 7 7 6 7 8 9 10 10 11 11 12 13 14 13 14
3 5 4 2 3 4 3 1 2 2 4 4 7 7 5 4 5 7 1 4 7 9 7 6 5 2 3 4 5 5 6 7 7 7 9 10 10 10 11 12 13 14 14
2 2 5 2 3 4 4 5 4 4 3 5 4 6 5 6 6 2 5 4 5 8 8 8 8 8 6 5 5 5 5 7 9 9 7 7 9 9 10 11 13 13 14
3 5 5 1 2 2 4 2 3 4 3 3 3 3 2 4 6 4 4 3 2 5 4 6 7 7 6 6 6 8 8 8 8 9 10 9 9 9 9 11 12 13 13
6 4 7 4 3 4 5 2 2 2 2 4 4 4 0 1 4 5 4 3 5 3 3 5 4 4 3 5 6 5 6 8 8 9 10 11 11 11 12 11 11 11 12
5 4 5 4 3 3 2 3 3 3 4 1 3 6 2 3 1 4 4 2 6 3 3 5 2 3 3 3 3 4 4 6 8 9 11 12 11 10 10 11 11 10 11
6 4 4 3 4 5 5 1 2 3 3 3 2 4 2 5 3 3 4 2 3 3 2 4 2 2 4 7 6 5 4 5 6 8 11 13 14 11 10 11 11 11 11
4 5 5 5 5 4 4 3 2 3 3 2 1 3 3 3 6 6 2 2 1 2 3 5 5 6 4 2 9 9 6 4 1 6 11 11 12 12 10 11 11 11 10
5 5 5 5 4 3 4 3 3 6 2 2 3 1 4 3 4 2 2 2 4 1 1 3 5 4 6 5 5 8 10 7 3 7 11 11 12 12 13 11 11 10 10
8 6 6 5 5 4 4 2 4 4 2 2 2 2 2 5 3 4 2 5 1 2 2 4 4 2 5 5 6 8 12 4 3 8 10 12 14 14 15 14 14 14 11
7 8 6 6 6 5 5 5 5 3 1 1 2 1 3 4 4 3 5 4 2 4 5 5 5 3 5 2 2 7 7 7 6 6 8 11 13 14 15 16 17 17 16
7 9 9 7 7 6 5 5 5 4 4 3 1 3 4 4 5 3 5 8 5 6 5 5 5 3 1 1 10 5 3 6 6 6 7 11 13 15 15 15 16 18 19
6 9 12 9 7 5 6 4 4 4 4 3 3 4 5 6 4 3 6 7 4 5 4 2 2 3 2 5 3 6 9 6 4 4 9 13 15 17 17 17 17 18 19
6 6 10 9 8 6 6 5 4 2 0 4 6 4 5 7 7 5 2 3 5 3 4 4 3 3 4 4 4 7 5 9 3 11 13 11 11 13 16 18 20 22 21
8 8 9 10 10 8 7 6 5 4 4 5 7 7 4 7 6 6 6 4 2 4 3 5 3 6 3 4 4 3 3 9 15 7 9 9 11 12 15 18 20 21 22
11 10 7 4 6 7 7 7 5 6 6 2 3 5 5 7 6 4 5 5 3 1 3 2 4 5 5 4 5 5 5 11 14 6 6 6 12 14 16 18 18 19 19
8 7 10 7 6 7 7 7 7 4 9 8 5 4 7 8 4 5 4 5 3 2 4 4 4 5 5 4 6 6 7 6 4 1 7 15 18 17 19 20 19 18 17
11 11 10 8 8 5 7 9 8 9 5 9 3 6 7 5 4 4 4 3 6 5 3 5 4 3 4 9 7 8 9 10 9 14 19 23 21 18 19 18 18 16 14
13 13 11 8 6 6 8 7 6 10 7 5 7 5 5 5 2 3 4 7 6 5 4 3 4 4 6 11 11 10 11 10 8 15 17 22 20 19 20 21 20 18 16
11 10 8 7 8 8 8 8 7 8 7 4 8 4 9 7 7 6 8 7 6 5 5 4 4 7 9 10 8 11 12 10 11 7 17 15 17 19 22 25 25 27 23
10 9 9 8 7 7 5 3 9 8 7 7 6 10 9 12 16 12 5 5 5 5 6 5 7 6 9 10 11 11 10 11 10 8 12 8 7 6 11 19 23 31 14
10 9 8 7 5 4 11 17 10 8 7 8 9 9 7 10 10 12 9 9 7 6 5 5 6 7 7 9 10 11 10 12 11 9 12 8 8 7 10 11 31 33 30
8 6 5 4 3 7 16 14 10 6 7 10 8 7 7 8 4 5 6 9 9 8 7 2 4 5 5 7 9 14 12 11 11 6 13 3 10 7 10 11 32 32 31
6 4 4 4 7 6 13 13 9 10 9 8 10 12 10 8 7 5 6 6 6 5 4 2 3 5 4 4 7 10 11 10 7 6 13 5 9 8 8 12 30 31 32
4 6 4 9 10 9 11 11 11 10 12 12 11 11 9 6 7 11 6 6 6 5 4 6 4 4 4 5 5 8 11 11 9 11 14 6 9 7 5 10 14 32 30
6 8 9 9 11 11 6 9 8 10 11 9 9 10 10 6 9 11 7 5 5 5 7 8 5 2 5 5 12 8 8 10 8 7 14 8 11 8 4 5 12 14 15
Wind_Direction
25 329 131 212 205 277 99 99 52 354 298 310 297 27 336 348 13 351 130 144 135 140 142 147 194 249 255 245 245 251 254 256 248 242 242 243 239 238 239 241 240 239 233
46 306 326 223 346 97 44 76 120 279 292 358 354 348 324 347 15 0 40 121 117 122 127 120 98 75 296 287 270 269 269 278 271 265 255 255 249 247 241 242 238 235 232
206 301 288 313 177 116 190 226 201 202 10 16 324 329 345 1 337 24 314 120 111 95 113 124 116 103 94 81 63 50 45 38 25 12 349 305 262 248 247 246 248 239 233
322 308 282 245 74 349 258 277 113 47 340 289 282 267 352 1 327 285 57 31 59 125 142 131 118 110 102 86 74 68 54 42 32 21 9 5 358 344 284 253 243 243 238
190 236 286 76 29 338 306 26 89 84 335 306 326 320 9 301 318 326 14 203 110 47 139 151 142 129 139 122 115 90 66 53 36 15 5 355 352 349 347 321 264 243 239
199 172 276 266 95 288 326 65 66 28 270 146 341 317 224 246 174 264 241 285 106 88 89 93 134 196 173 206 138 115 84 50 25 8 351 338 333 336 340 337 343 283 247
174 175 267 260 196 227 248 113 23 287 301 46 294 304 296 205 214 330 233 31 130 184 66 161 195 101 171 192 185 176 141 77 29 4 346 329 318 319 326 332 332 332 333
229 184 218 295 301 322 296 185 198 268 310 117 58 273 321 284 23 325 292 219 192 132 286 64 234 175 171 148 180 190 166 124 343 332 330 319 309 305 305 314 322 323 326
209 214 225 240 290 299 299 201 215 246 253 155 138 317 340 341 339 24 7 359 239 173 13 259 276 193 174 189 219 153 167 169 250 330 330 322 313 308 306 299 304 308 310
198 206 233 241 253 260 294 244 243 256 328 342 25 206 255 232 276 323 350 296 63 215 238 265 267 1 209 214 205 139 165 185 272 321 339 328 313 306 302 299 295 294 294
195 206 214 211 230 241 256 259 261 241 14 88 144 290 280 288 289 324 309 319 296 260 221 210 231 245 271 124 247 124 152 205 261 312 327 306 301 301 300 296 293 290 286
195 202 212 200 212 215 237 260 259 231 216 204 169 220 265 298 299 309 296 314 312 303 230 231 139 215 92 218 70 88 23 295 311 339 305 294 292 288 287 286 284 285 286
222 208 201 202 208 192 223 261 234 258 345 317 271 302 301 293 317 304 315 311 319 313 324 69 111 65 72 77 61 23 357 38 3 315 279 275 275 275 278 278 276 274 270
268 283 180 190 202 194 195 227 222 204 228 277 281 264 289 293 296 337 314 326 332 332 338 1 103 60 48 43 341 7 7 330 261 286 284 319 333 330 312 294 282 272 266
266 275 188 194 192 188 189 202 198 143 193 244 281 288 275 282 310 312 310 293 247 340 327 342 12 59 18 4 28 21 317 279 281 26 55 23 2 333 311 298 289 287 272
233 251 271 233 193 183 189 194 181 170 216 144 270 272 275 290 302 309 315 297 317 278 274 330 355 34 346 341 334 3 305 304 103 81 74 28 351 338 320 307 297 291 281
240 236 225 224 210 208 206 193 187 123 42 338 295 272 286 286 310 325 307 288 320 331 1 339 355 333 326 0 16 329 354 2 313 91 34 2 344 330 322 313 307 289 283
235 234 241 220 222 224 210 210 177 119 176 290 294 291 299 312 19 323 293 338 44 45 11 344 318 326 6 19 345 7 354 336 321 342 19 353 338 344 330 327 322 313 287
230 236 237 237 230 216 236 234 189 150 172 220 270 269 290 10 1 276 15 49 31 2 17 350 342 348 20 10 1 352 341 326 345 16 12 348 348 341 351 346 334 322 310
236 238 239 237 214 218 227 231 118 152 181 216 257 25 50 41 50 41 50 44 27 12 8 15 0 13 21 358 353 345 338 339 341 24 351 356 342 349 357 347 330 317 281
229 234 235 232 225 208 215 191 127 152 154 228 82 84 73 87 75 60 67 57 47 42 35 12 27 14 9 357 354 339 336 338 356 16 357 336 345 350 356 344 345 350 343
223 226 224 232 219 175 111 127 139 171 202 122 110 113 131 94 87 93 98 92 83 72 53 32 22 27 11 355 348 340 348 348 343 32 346 327 1 353 358 350 4 10 15
216 215 215 196 125 107 131 128 139 151 121 124 131 161 107 71 105 134 138 125 94 91 84 72 46 38 24 347 346 356 353 353 350 11 346 331 3 340 5 357 10 15 20
197 186 149 156 107 104 124 126 121 112 111 90 87 84 86 68 35 11 61 45 49 90 69 54 69 79 75 332 348 360 352 351 352 25 358 348 350 341 3 7 9 17 18
154 130 142 102 110 133 129 122 116 103 91 71 73 85 85 78 37 16 56 37 50 26 176 246 243 116 94 328 344 16 20 17 15 21 4 349 350 333 336 6 8 12 17
112 92 107 115 131 133 134 124 126 113 104 97 83 73 66 84 60 41 45 38 42 3 341 341 358 224 156 234 68 42 30 39 26 13 3 10 355 357 350 345 12 12 8